Tracking 19832 objects as of 25-Aug-2019
HD Live streaming from Space Station
objects crossing your sky now

COSMOS 2251 DEB

Track COSMOS 2251 DEB now!
10-day predictions


NORAD ID: 40795
Int'l Code: 1993-036BVY
Perigee: 604.8 km
Apogee: 796.4 km
Inclination: 74.0 °
Period: 98.6 minutes
Semi major axis: 7071 km
RCS: Unknown
Launch date: June 16, 1993
Source: Commonwealth of Independent States (former USSR) (CIS)
Launch site: PLESETSK MISSILE AND SPACE COMPLEX (PKMTR)

Note: This is SATELLITE DEBRIS
aabbcc
Your satellite tracking list
Your tracking list is empty




NASA's NSSDC Master Catalog

Two Line Element Set (TLE):
1 40795U 93036BVY 19236.98410970  .00000571  00000-0  11147-3 0  9995
2 40795  73.9685 337.9230 0135449 338.7396 143.2849 14.59908160390474
Source of the keplerian elements: AFSPC